Location: ??????
(38.0131°N, 23.7723°E)
Time: 15:48:21
(UTC+00:00)

Daily predictions for brighter satellites

Satellite Brightness Start Highest point End
(mag) Time Altitude Azimuth Time Altitude Azimuth Time Altitude Azimuth
USA 267 3.5 15:59:23 10° SE 16:05:57 80° SW 16:12:32 10° NW
Radarsat Rocket 4.2 16:00:26 10° SSE 16:06:29 89° E 16:13:17 10° NNW
deb Chang Zheng 4 3.6 16:05:47 10° SSE 16:09:51 53° ENE 16:13:57 10° N
Cosmos 1821 Rocket 4.4 16:04:02 10° SSE 16:10:01 44° E 16:16:00 10° NNE
SL-16 R/B 3.9 16:10:11 10° ESE 16:11:28 11° E 16:12:44 10° E
Cosmos 1470 3.9 16:08:26 10° SSW 16:12:17 50° W 16:16:10 10° N
H-2A R/B 2.2 16:12:29 10° SSE 16:17:40 59° ENE 16:23:00 10° N
Cosmos 2082 4.0 16:15:19 10° N 16:20:42 45° ENE 16:26:03 10° SE
PSLV R/B 4.5 16:18:19 10° S 16:22:21 64° WSW 16:26:22 10° NNW
Cosmos 1703 4.3 16:21:11 10° NNE 16:24:28 25° ENE 16:27:43 10° SE
Cosmos 1758 3.7 16:20:53 10° SSW 16:24:50 67° W 16:28:49 10° N
Landsat 5 3.6 16:23:08 10° NNE 16:27:30 68° ESE 16:31:56 10° S
Cosmos 2098 4.1 16:25:17 10° S 16:28:20 89° WNW 16:31:20 10° N
Cosmos 2322 Rocket 3.9 16:27:12 10° ESE 16:28:47 11° E 16:28:47 11° E
CZ-4 R/B 2.6 16:27:19 10° ESE 16:30:21 22° ENE 16:33:26 10° NNE
Cosmos 1934 Rocket 4.5 16:28:37 10° SSE 16:34:04 35° E 16:39:29 10° NNE
Cosmos 1953 2.4 16:30:41 10° S 16:34:37 57° E 16:38:36 10° NNE
Meteor 1-21 Rocket 4.4 16:31:34 10° N 16:37:17 53° ENE 16:43:02 10° SSE
X-37B 1.8 16:34:43 10° W 16:37:40 34° NNW 16:40:06 14° NE
Cosmos 1174 4.3 16:35:36 10° SW 16:38:59 46° WNW 16:41:58 10° NNE
SKYMED 2 3.7 16:35:20 10° N 16:39:41 81° WNW 16:44:01 10° SSW
ATLAS 5 CENTAUR R/B 1.2 16:37:33 10° SSW 16:41:20 68° ESE 16:45:27 10° NE
Cosmos 1300 3.8 16:38:30 10° SE 16:41:29 22° E 16:44:29 10° NE
CZ-4B R/B 3.4 16:37:27 10° SSE 16:43:04 84° WSW 16:48:47 10° NNW
Timation 2 Rocket 4.3 16:36:54 10° NNW 16:43:49 84° WSW 16:50:29 10° SSE
Okean O Rocket 1.5 16:39:48 10° SSE 16:44:07 83° ENE 16:48:29 10° N
CZ-4C R/B 2.8 16:41:33 10° NNE 16:44:59 89° WNW 16:48:17 10° SSW
Cosmos 1048 Rocket 4.2 16:40:17 10° NNW 16:45:39 78° WSW 16:50:54 10° SSE
YAOGAN 1 3.1 16:43:08 10° SE 16:47:04 35° ENE 16:51:02 10° N
Cosmos 389 Rocket 3.5 16:45:56 10° SSW 16:49:12 45° WNW 16:52:29 10° N
Cosmos 371 Rocket 4.1 16:45:36 10° SSE 16:49:43 28° E 16:53:30 12° NE
Cosmos 2123 Rocket 4.4 16:44:09 10° N 16:50:04 40° ENE 16:55:56 10° SE
SJ-11-01 4.2 16:45:50 10° SSE 16:50:29 75° ENE 16:55:11 10° N
Cosmos 1455 Rocket 3.0 16:46:33 10° S 16:50:53 63° E 16:55:16 10° NNE
Cosmos 405 Rocket 3.2 16:47:24 10° N 16:51:09 40° ENE 16:54:55 10° SSE
Cosmos 2369 4.5 16:49:09 10° SW 16:54:39 54° WNW 17:00:14 10° NNE
Okean-O 3.7 16:53:54 23° E 16:54:40 24° ENE 16:58:15 10° NNE
H-2A R/B 2.1 16:57:00 10° NNE 17:00:58 46° E 17:04:58 10° S
Cosmos 1544 Rocket 3.7 17:00:00 10° SSE 17:04:16 49° E 17:08:35 10° NNE
Feng Yun 1-1 Rocket 4.1 16:59:21 10° SSE 17:04:47 76° ENE 17:10:24 10° N
Cosmos 1980 Rocket 2.8 17:01:01 10° SW 17:06:33 57° WNW 17:12:09 10° NNE
Okean 1-7 Rocket 3.9 17:03:44 10° N 17:07:56 42° E 17:10:02 25° SE
Spot 2 3.9 17:06:17 10° SSE 17:10:19 88° W 17:14:29 10° NNW
NOSS 2-3 (E) 4.3 17:07:08 10° S 17:09:55 28° SE 17:09:55 28° SE
Iridium 4 Rocket 3.1 17:06:37 10° N 17:11:05 66° E 17:15:56 10° S
Cosmos 2263 Rocket 2.4 17:07:50 10° N 17:13:13 47° ENE 17:15:33 30° ESE
CZ-2C R/B 1.4 17:10:54 10° WSW 17:14:07 40° S 17:14:18 40° SSE
ARGOS 3.4 17:08:59 10° S 17:14:20 70° WSW 17:19:45 10° NNW
Genesis I 4.1 17:17:47 10° NW 17:21:46 50° WSW 17:24:53 15° S
Tiangong 1.5 17:18:57 10° WSW 17:21:39 53° SSW 17:21:39 53° SSW
H-2A R/B 3.1 17:22:13 10° S 17:26:35 61° W 17:30:51 10° NNW
MetOp-A 4.1 17:28:52 38° SE 17:30:38 56° ENE 17:35:53 10° N
CSL-04 Rocket 3.8 17:31:33 46° E 17:32:24 50° ENE 17:37:45 10° N
Cosmos 1605 Rocket 3.9 17:29:19 10° S 17:35:28 70° E 17:41:45 10° NNE
CZ-2C R/B 4.5 17:33:26 10° N 17:38:22 33° WNW 17:43:13 10° SW
DMSP B5D2-2 4.4 17:38:22 10° N 17:43:34 65° WNW 17:48:43 10° SSW
SL-8 R/B 4.3 17:39:53 10° WSW 17:44:33 51° NNW 17:45:32 44° NNE
Cosmos 724 4.2 17:39:35 10° NNW 17:45:30 66° ENE 17:46:06 62° E
Cosmos 489 Rocket 4.5 17:43:11 10° NNW 17:49:23 78° WSW 17:53:30 23° S
IRS-P2 Rocket 4.4 17:53:44 75° SE 17:54:11 85° ENE 17:59:26 10° NNW
SL-16 R/B 2.1 17:49:01 10° SSW 17:54:41 86° WNW 17:57:00 38° NNE
Gbstr 26 Del rocket 4.5 17:47:48 10° NW 17:55:17 64° NE 17:56:54 54° E
Meteor 1-11 4.3 17:51:49 10° NNW 17:57:25 75° W 18:00:23 29° S
Cosmos 839 Rocket 4.5 17:56:28 10° NNW 18:03:15 50° NE 18:03:15 50° NE
NOSS 3-1 (C) 3.2 17:59:30 10° SW 18:04:35 74° NW 18:05:09 67° N
CZ-4 R/B 3.5 18:01:57 10° SSW 18:05:11 24° W 18:08:30 10° NW
Cosmos 2322 Rocket 2.5 18:06:24 10° SSW 18:10:45 56° SSW 18:10:45 56° SSW
X-37B 4.1 18:12:18 10° NW 18:12:23 10° NW 18:12:23 10° NW
ATLAS 5 CENTAUR R/B 4.3 18:24:42 10° WNW 18:26:31 13° NW 18:27:36 12° NNW
Cosmos 2263 Rocket 4.2 18:52:38 10° NW 18:56:43 21° W 18:57:18 21° WSW
